Location: New Frontier Mobile Home Park
(32.8448°N, 116.9675°W)
Time: 23:04:12
(UTC+00:00)

NOSS 3-4 (A) - Pass Details

Date: 14 July 2020
Orbit: 892 x 1320 km, 63.4° (Epoch: 12 July)

Event Time Altitude Azimuth Distance (km) Brightness Sun altitude
Rises 04:50:37 0° 334° (NNW) 3,893 7.9 -20.2°
Reaches altitude 10° 04:53:16 10° 340° (NNW) 2,995 7.0 -20.6°
Maximum altitude 05:00:19 54° 56° (ENE) 1,440 4.2 -21.6°
Enters shadow 05:03:32 34° 114° (ESE) 1,913 4.5 -22.1°
